Valparaiso, IN

9:48 PM CDT on October 19, 2017 (GMT -0500)
Porter County Municipal

Weather History for KVPZ - April, 2013

Change the Weather History Date:

Tuesday, April 23, 2013

  Actual Average Record
Temperature  
Mean Temperature 52 °F 52 °F  
Max Temperature 66 °F 63 °F 78 °F (2008)
Min Temperature 38 °F 41 °F 29 °F (2015)
Degree Days  
Heating Degree Days 13 13  
Month to date heating degree days 438 397  
Since 1 July heating degree days 5807 5974  
Cooling Degree Days 0 0  
Month to date cooling degree days 0 0  
Year to date cooling degree days 0 0  
Moisture  
Dew Point 44 °F    
Average Humidity 80    
Maximum Humidity 94    
Minimum Humidity 52    
Precipitation  
Precipitation 0.41 in 0.11 in 0.59 in (1999)
Month to date precipitation 6.10 2.55  
Year to date precipitation 10.19 8.20  
Sea Level Pressure  
Sea Level Pressure 29.93 in    
Wind  
Wind Speed 10 mph (SSW)    
Max Wind Speed 22 mph    
Max Gust Speed 28 mph    
Visibility 7 miles    
Events Rain    
T = Trace of Precipitation, MM = Missing Value Source: NWS Daily Summary

Daily Weather History Graph

Daily Weather History Graph

Search for Another Location

Airport or City:

Trip Planner

Search our weather history database for the weather conditions in past years. The results will help you decide how hot, cold, wet, or windy it might be!

Date:

Astronomy

Apr. 23, 2013 Rise Set
Actual Time 5:55 AM CDT 7:37 PM CDT
Civil Twilight 5:26 AM CDT 8:06 PM CDT
Nautical Twilight 4:50 AM CDT 8:42 PM CDT
Astronomical Twilight 4:12 AM CDT 9:20 PM CDT
Moon 5:30 PM CDT (4/23) 4:25 AM CDT (4/23)
Length of Visible Light 14h 40m
Length of Day
13h 41m
Waxing Gibbous, 94% of the Moon is Illuminated
Apr 23
Waxing Gibbous
Apr 25
Full
May 2
Last Quarter
May 9
New
May 17
First Quarter

Hourly Weather History & Observations

Time (CDT) Temp. Windchill Dew Point Humidity Pressure Visibility Wind Dir Wind Speed Gust Speed Precip Events Conditions
12:53 AM 53.1 °F - 37.0 °F 55% 30.07 in 10.0 mi SE 6.9 mph - N/A   Clear
1:53 AM 52.0 °F - 37.0 °F 57% 30.05 in 10.0 mi SE 6.9 mph - N/A   Scattered Clouds
2:53 AM 52.0 °F - 37.9 °F 59% 30.02 in 10.0 mi SE 5.8 mph - N/A   Scattered Clouds
3:53 AM 52.0 °F - 39.0 °F 61% 30.00 in 10.0 mi SE 5.8 mph - N/A   Partly Cloudy
4:53 AM 51.1 °F - 39.9 °F 66% 30.01 in 10.0 mi South 3.5 mph - N/A   Scattered Clouds
5:53 AM 51.1 °F - 41.0 °F 68% 30.00 in 10.0 mi South 4.6 mph - N/A   Overcast
6:53 AM 53.1 °F - 42.1 °F 66% 30.00 in 10.0 mi South 8.1 mph - 0.00 in   Overcast
7:53 AM 53.1 °F - 43.0 °F 69% 29.98 in 10.0 mi SE 8.1 mph - N/A   Scattered Clouds
8:53 AM 57.0 °F - 45.0 °F 64% 29.97 in 10.0 mi South 5.8 mph - N/A   Clear
9:53 AM 62.1 °F - 46.0 °F 56% 29.96 in 10.0 mi South 10.4 mph 19.6 mph N/A   Clear
10:53 AM 64.0 °F - 46.0 °F 52% 29.95 in 10.0 mi SSW 12.7 mph - N/A   Clear
11:53 AM 64.9 °F - 46.9 °F 52% 29.92 in 10.0 mi South 18.4 mph 25.3 mph N/A   Overcast
12:53 PM 63.0 °F - 48.0 °F 58% 29.91 in 10.0 mi SW 18.4 mph 24.2 mph N/A   Overcast
1:53 PM 57.0 °F - 52.0 °F 83% 29.92 in 7.0 mi SSW 13.8 mph 21.9 mph 0.02 in   Overcast
2:53 PM 57.0 °F - 53.1 °F 87% 29.91 in 6.0 mi SSW 8.1 mph - 0.01 in Rain Light Rain
3:25 PM 55.4 °F - 53.6 °F 94% 29.90 in 4.0 mi SSW 9.2 mph - 0.01 in Rain Light Rain
3:31 PM 55.4 °F - 53.6 °F 94% 29.90 in 2.5 mi South 9.2 mph - 0.03 in Rain Light Rain
3:36 PM 55.4 °F - 53.6 °F 94% 29.90 in 3.0 mi SSW 9.2 mph - 0.03 in Rain Light Rain
3:49 PM 55.4 °F - 53.6 °F 94% 29.89 in 4.0 mi SSW 11.5 mph - 0.03 in Rain Light Rain
3:53 PM 55.9 °F - 54.0 °F 93% 29.89 in 4.0 mi South 9.2 mph - 0.03 in Rain Light Rain
4:07 PM 55.4 °F - 53.6 °F 94% 29.89 in 2.5 mi SW 10.4 mph - 0.02 in Rain Light Rain
4:16 PM 55.4 °F - 53.6 °F 94% 29.89 in 3.0 mi SW 8.1 mph - 0.03 in Rain Light Rain
4:53 PM 55.0 °F - 53.1 °F 93% 29.88 in 4.0 mi West 6.9 mph - 0.05 in Rain Light Rain
5:06 PM 46.4 °F 40.7 °F 44.6 °F 93% 29.88 in 2.5 mi North 12.7 mph 18.4 mph 0.01 in Rain Light Rain
5:14 PM 44.6 °F 39.2 °F 42.8 °F 93% 29.88 in 2.5 mi North 10.4 mph - 0.02 in Rain Light Rain
5:18 PM 44.6 °F 38.8 °F 42.8 °F 93% 29.88 in 3.0 mi North 11.5 mph - 0.03 in Rain Light Rain
5:46 PM 42.8 °F 36.6 °F 39.2 °F 87% 29.88 in 3.0 mi North 11.5 mph 21.9 mph 0.06 in Rain Light Rain
5:53 PM 42.1 °F 36.6 °F 39.9 °F 92% 29.90 in 4.0 mi North 9.2 mph 19.6 mph 0.07 in Rain Light Rain
6:53 PM 39.9 °F 31.8 °F 37.9 °F 93% 29.90 in 5.0 mi North 15.0 mph 25.3 mph 0.06 in Rain Light Rain
7:53 PM 39.0 °F 30.3 °F 37.0 °F 93% 29.92 in 7.0 mi North 16.1 mph 25.3 mph 0.11 in Rain Light Rain
8:53 PM 39.0 °F 31.4 °F 37.0 °F 93% 29.91 in 10.0 mi North 12.7 mph 19.6 mph 0.02 in Rain Light Rain
9:53 PM 39.0 °F 32.8 °F 36.0 °F 89% 29.90 in 10.0 mi North 9.2 mph 21.9 mph 0.02 in   Overcast
10:53 PM 37.9 °F 30.0 °F 36.0 °F 93% 29.90 in 10.0 mi North 12.7 mph 18.4 mph 0.01 in   Overcast
11:53 PM 37.9 °F 30.5 °F 36.0 °F 93% 29.90 in 7.0 mi North 11.5 mph 20.7 mph N/A   Overcast